Wind_Speed
38 36 41 46 47 46 43 41 39 34 29 25 22 21 20 18 16 14 14 15 15 17 19 21 22 20 20 21 18 14 15 20 24 25 26 26 27 25 21 19 16 15 15 15 15 14 13 12 11 12 12 12 12 12 12 12 12 12 12 12 11 10 9 9 9 9 10 11 11 11 11 10 8 7 7 7 7 7 8 9 10 11 13 13 15 16
38 41 47 49 45 42 40 39 36 34 31 26 23 21 20 19 17 14 14 18 17 17 20 21 22 21 19 20 20 19 19 21 23 26 27 29 29 26 23 20 18 17 17 17 16 14 13 12 12 13 13 12 12 11 12 13 14 14 14 13 12 11 10 10 10 10 11 11 11 11 11 9 8 7 8 8 7 6 7 9 10 12 14 15 16 17
40 45 47 43 41 39 37 37 36 34 32 29 25 22 21 19 17 15 16 19 18 18 20 20 21 22 21 20 20 21 22 20 18 20 25 29 30 28 25 23 20 19 18 18 16 15 14 13 14 15 14 14 13 13 13 14 15 15 14 14 13 12 11 11 10 11 11 11 11 10 10 9 8 8 8 9 9 8 9 10 11 13 14 16 17 18
39 41 42 40 39 39 37 36 37 35 34 33 29 25 23 19 17 16 16 18 17 18 20 19 20 23 22 21 19 19 22 22 20 23 28 32 33 32 29 26 23 21 19 18 17 15 15 15 15 15 15 14 14 14 15 15 15 15 14 14 13 12 12 12 12 12 12 11 11 10 9 8 8 8 9 10 10 11 11 11 12 13 14 16 17 17
37 31 35 40 37 38 38 36 37 37 36 35 32 28 24 21 19 18 16 15 15 17 19 18 18 22 25 23 19 20 24 26 25 28 35 37 38 35 31 27 25 21 19 17 15 15 15 15 16 16 15 15 15 16 16 16 15 15 14 13 13 12 13 12 12 12 11 11 10 9 8 8 7 8 9 10 10 11 11 12 13 14 14 15 16 15
39 27 27 36 39 38 38 38 39 38 38 36 34 31 25 22 22 20 16 12 11 13 15 12 10 14 21 22 20 23 28 30 27 29 33 34 34 32 29 28 26 22 19 16 14 14 15 16 17 17 17 17 17 17 17 16 15 15 14 13 12 12 11 12 12 12 11 10 10 9 8 7 8 8 9 9 10 11 12 13 14 14 15 15 15 14
40 31 24 29 37 39 38 39 40 38 38 37 37 33 26 24 24 21 17 13 9 8 9 8 7 10 14 15 20 25 28 29 29 32 33 33 32 30 30 29 26 23 20 17 15 14 15 16 17 17 17 18 18 17 16 16 15 14 13 12 11 10 10 10 10 10 10 9 9 8 8 8 8 9 9 9 10 11 13 14 15 15 15 15 14 13
39 36 28 24 31 38 41 41 40 40 38 36 37 32 27 28 26 22 20 17 14 13 13 13 13 15 15 14 21 25 29 30 30 35 37 36 35 33 32 30 27 23 19 17 16 15 15 16 16 16 17 18 18 17 16 16 15 14 13 12 10 9 8 8 8 8 8 8 9 9 9 9 9 10 10 10 12 13 14 15 15 16 15 14 12 12
30 37 34 25 25 35 44 43 39 39 36 34 35 31 29 29 25 23 20 19 19 17 18 20 15 12 13 14 23 28 33 35 34 37 39 39 39 36 34 31 27 23 19 18 17 17 18 18 17 17 17 18 17 17 16 16 14 13 12 11 10 9 8 8 8 8 9 9 9 10 10 11 11 11 11 12 13 14 15 16 16 16 14 13 12 12
21 30 35 29 26 33 41 41 38 37 34 32 32 29 29 28 22 18 15 17 18 12 19 25 18 10 8 13 25 32 36 39 38 38 39 40 40 37 34 30 27 24 21 21 19 18 19 19 18 17 18 19 17 16 16 16 14 13 12 11 10 9 8 8 8 8 9 9 10 11 12 12 12 12 12 13 15 16 16 16 16 16 14 12 12 13
19 19 29 34 32 31 33 36 38 35 31 29 28 26 27 26 21 15 15 17 12 9 23 28 20 14 9 12 27 34 36 37 38 39 40 40 40 38 34 30 28 26 24 23 21 19 20 20 19 18 18 20 19 18 18 16 15 14 13 11 10 9 8 7 7 8 9 10 11 12 12 13 14 14 13 14 16 17 17 17 16 15 13 13 13 13
24 15 25 35 35 29 26 31 36 34 31 28 24 24 22 18 15 12 15 18 7 7 23 25 20 20 13 14 26 33 34 34 36 39 41 42 41 38 35 32 30 28 26 24 22 21 21 22 21 19 19 21 20 20 20 18 16 15 14 12 11 10 8 8 9 9 10 11 12 12 13 15 15 15 15 16 17 18 18 17 15 14 13 13 13 13
34 24 21 26 31 31 25 27 32 31 32 30 24 25 19 7 7 8 7 9 6 10 19 16 12 17 17 20 26 30 32 33 36 37 36 39 42 39 35 34 33 31 28 25 24 22 21 21 21 20 19 20 21 22 21 19 18 17 15 14 13 11 9 10 10 11 12 12 13 14 15 16 16 15 16 17 18 17 17 16 15 14 13 13 13 14
32 28 23 24 29 34 31 29 32 34 35 35 31 29 20 6 3 6 4 1 4 13 19 14 9 10 13 19 25 32 33 32 35 38 35 36 40 40 38 37 35 33 30 27 24 22 21 20 20 19 19 20 21 22 21 21 21 19 17 15 13 11 11 12 12 12 13 14 15 16 15 15 14 15 16 17 18 17 16 15 15 15 14 14 14 14
25 22 27 32 30 33 38 34 33 36 37 37 36 32 24 16 7 3 5 3 3 7 11 12 9 6 10 14 22 33 36 34 38 42 42 42 43 43 40 39 38 34 31 28 25 23 21 20 19 18 18 19 20 21 21 22 22 21 19 16 14 12 13 13 13 14 14 14 14 14 13 13 14 16 17 18 17 16 15 15 15 15 14 14 14 14
28 25 27 31 29 30 35 35 31 31 33 34 35 33 32 31 18 3 4 9 8 5 4 8 8 7 12 13 20 34 39 39 42 42 44 46 46 44 42 40 39 35 31 29 27 25 23 20 19 19 19 20 20 20 20 21 22 21 19 17 15 14 14 14 14 14 13 13 13 13 13 14 16 17 17 17 17 15 15 14 14 14 14 14 15 15
24 25 26 25 27 29 29 32 33 29 27 28 33 38 39 35 25 11 5 7 9 5 3 6 6 7 12 11 18 36 39 37 40 38 41 46 46 45 44 42 39 35 31 29 28 26 24 20 18 19 20 20 21 21 20 20 20 20 20 19 17 16 15 15 15 14 13 13 13 13 15 16 17 18 17 17 16 15 14 15 15 15 15 16 16 16
19 18 24 25 25 29 27 26 32 31 25 25 32 37 32 25 24 20 8 3 4 3 3 5 5 8 12 7 14 31 35 32 35 34 36 42 44 44 43 42 39 34 31 30 29 26 21 16 15 18 20 20 21 22 22 21 20 20 21 21 19 17 16 15 14 13 13 13 14 15 16 17 18 18 17 16 15 15 15 15 15 16 16 16 17 17
20 13 19 26 23 25 26 24 28 33 29 26 28 28 25 21 22 24 13 2 4 3 1 2 5 10 16 14 15 27 33 31 32 33 34 37 39 40 41 39 36 34 33 32 31 26 20 17 18 21 22 22 21 21 21 21 21 22 23 22 20 18 17 15 14 14 14 14 14 15 16 17 17 17 16 15 15 15 16 16 16 16 16 17 17 18
21 14 11 23 25 21 25 28 31 35 34 31 25 24 28 26 23 24 16 6 5 4 1 2 3 9 19 22 19 24 31 32 30 31 33 35 36 36 37 37 36 36 35 34 33 29 24 22 22 23 24 24 22 20 20 20 22 24 24 22 21 19 17 16 15 14 14 14 15 16 17 17 17 16 15 15 15 16 16 16 16 17 17 17 18 18
19 18 11 16 26 25 26 32 35 35 36 36 30 27 31 28 22 21 18 12 6 5 3 3 2 9 18 22 20 22 27 30 30 29 30 34 35 35 36 35 36 37 36 34 32 28 26 23 23 24 25 24 22 21 21 22 23 25 24 23 22 20 18 16 15 14 14 15 15 16 17 16 16 16 15 16 16 16 17 17 17 17 18 18 19 19
17 19 17 16 24 31 32 31 32 31 33 36 34 30 31 30 23 14 11 14 11 5 5 6 3 9 17 21 20 20 23 27 29 28 30 34 35 34 34 34 36 36 35 31 29 27 26 24 23 25 26 25 23 23 23 24 26 26 25 23 21 20 18 16 15 15 15 15 16 16 16 16 16 16 16 17 17 18 18 18 18 19 19 19 20 20
21 16 15 14 20 28 29 25 25 27 29 33 33 29 27 29 29 19 9 11 12 6 5 6 2 6 16 22 21 21 24 26 28 30 33 35 36 37 37 38 39 36 32 28 27 27 26 25 25 27 27 26 24 23 24 25 27 27 25 22 21 19 17 16 16 16 15 16 16 15 15 15 15 16 17 18 18 18 18 18 19 19 20 20 21 22
26 18 13 9 10 17 23 23 24 25 28 31 33 33 29 28 32 29 18 13 14 12 8 5 0 5 17 24 24 24 27 28 29 33 35 36 38 39 40 40 38 33 29 27 27 28 27 26 27 28 29 27 25 25 25 26 27 26 23 21 19 18 17 16 16 16 15 15 15 14 14 14 15 16 16 17 18 18 19 19 19 20 20 21 22 23
28 22 17 9 2 6 14 16 19 25 31 33 34 37 35 28 26 27 21 15 16 20 18 10 3 6 16 23 25 27 28 29 31 33 34 36 40 41 39 37 35 33 32 31 30 29 29 28 28 29 28 27 25 25 25 24 25 23 21 20 18 17 17 16 15 15 15 14 14 13 14 15 15 16 17 18 18 19 19 20 20 20 21 22 23 24
28 23 20 13 4 5 8 10 18 28 33 33 34 36 35 29 24 21 18 14 13 17 21 16 10 11 18 22 24 27 29 30 32 31 33 37 40 40 39 37 37 37 34 32 31 30 30 30 30 28 26 23 22 22 22 22 22 22 20 19 18 17 16 15 15 15 14 13 14 14 14 15 16 17 18 19 19 20 20 20 21 21 22 22 23 24
28 25 21 16 11 10 11 13 19 26 28 28 30 32 32 29 25 19 16 14 13 15 18 17 16 17 21 24 25 28 30 31 32 31 33 36 37 36 35 33 35 37 35 32 31 30 29 29 28 25 21 19 19 20 21 21 21 21 20 18 17 16 15 14 14 14 14 13 14 14 15 16 16 17 18 19 20 21 21 21 21 22 23 24 25 26
24 25 24 19 12 10 11 14 17 22 25 25 27 30 30 28 27 24 19 15 14 14 14 16 17 18 22 25 25 26 28 29 31 32 34 36 36 34 33 32 34 36 33 30 27 27 27 25 23 20 18 18 18 18 19 21 21 20 19 18 16 15 14 13 14 14 14 14 14 15 15 16 17 18 18 19 20 21 21 22 23 24 25 26 27 28
21 23 25 21 12 7 6 10 15 20 24 26 27 29 29 27 27 29 26 20 15 14 14 15 16 15 16 21 23 23 25 26 29 31 33 35 36 36 35 34 33 31 28 26 25 25 23 20 17 17 17 19 18 18 19 20 20 19 17 16 16 15 14 14 15 15 15 15 15 15 15 16 17 18 19 19 20 21 23 24 25 26 27 28 29 29
21 19 21 20 15 9 5 5 11 16 20 25 28 30 29 27 27 28 28 25 20 17 17 16 14 11 11 18 24 25 25 26 28 29 31 32 34 36 35 32 29 26 23 22 21 20 18 16 15 17 18 18 18 18 19 19 18 17 15 16 16 16 15 15 15 15 15 15 15 15 15 16 17 18 19 20 21 22 24 25 26 28 29 30 30 30
24 18 19 21 16 9 5 3 7 11 16 22 26 28 27 26 25 25 27 27 25 22 19 18 19 16 13 16 23 25 25 26 27 28 28 29 29 30 30 27 24 21 20 19 18 17 17 17 17 17 17 18 19 19 18 17 17 16 16 17 17 17 17 16 16 16 16 15 15 16 16 17 18 19 20 21 22 23 25 26 27 29 29 29 29 28
28 20 18 23 18 9 5 3 5 9 14 18 21 24 25 25 24 25 28 28 26 24 21 22 24 21 16 16 20 22 23 24 25 25 26 25 25 24 24 24 21 19 19 18 17 17 17 18 17 17 18 18 19 18 17 17 17 17 18 18 18 18 17 17 17 16 16 16 16 17 18 19 20 20 21 21 23 24 26 27 28 28 28 28 27 26
29 25 20 23 19 12 9 6 6 9 10 12 16 21 25 27 25 25 27 25 23 24 25 24 23 19 16 18 18 19 21 23 23 24 25 25 25 24 23 21 20 20 20 20 18 16 16 16 16 17 17 18 19 18 17 17 17 18 19 19 19 18 17 17 17 16 16 17 17 18 19 20 20 21 21 23 24 26 27 27 27 27 27 26 26 25
29 29 24 22 19 13 11 9 6 5 5 6 11 15 21 26 26 23 23 22 21 23 23 20 18 18 17 17 16 15 18 21 22 21 21 21 22 22 22 20 19 20 20 20 19 17 17 17 17 17 18 19 19 18 17 17 18 19 19 19 18 17 17 16 16 17 17 17 18 18 19 20 20 22 23 24 25 26 26 26 26 26 26 26 26 26
28 28 23 22 19 14 14 12 6 3 5 7 9 10 12 17 21 22 21 21 20 20 18 16 16 17 16 16 16 17 19 23 22 18 18 19 18 15 15 16 16 16 18 20 21 20 20 20 19 19 19 19 18 17 17 17 18 18 18 17 16 16 16 16 16 17 17 17 18 18 19 20 22 23 24 25 26 26 26 26 26 26 26 26 26 25
25 25 23 22 19 16 15 12 6 3 4 6 7 7 8 10 15 19 20 20 20 18 17 16 16 18 18 18 20 22 24 27 25 21 21 20 16 11 9 11 12 14 18 21 22 22 22 22 21 19 18 18 17 16 16 15 15 15 16 16 15 15 15 16 16 16 16 17 18 19 20 22 23 24 24 25 25 25 25 25 25 25 25 25 25 25
22 23 24 23 18 16 14 10 6 3 3 6 6 6 7 8 11 16 18 19 19 18 16 16 17 19 21 21 22 25 27 27 26 25 24 20 15 12 10 10 13 16 18 19 18 18 18 19 18 17 15 15 14 13 13 13 13 14 14 14 14 14 15 15 15 15 16 17 19 20 21 22 23 24 24 24 24 24 24 24 25 25 25 24 24 23
20 21 22 19 15 15 14 9 5 2 2 7 7 5 6 7 9 13 16 17 19 18 17 16 17 19 22 22 25 28 28 27 27 27 26 21 16 15 14 15 17 17 16 14 13 13 13 13 13 12 12 12 12 12 12 12 12 12 12 12 13 13 13 14 15 16 17 18 20 21 22 22 22 22 22 22 22 22 23 23 23 23 24 23 22 21
19 18 19 18 15 17 17 8 4 4 5 8 8 7 8 8 10 12 13 15 20 20 18 18 17 19 22 23 25 29 30 28 30 31 28 23 18 18 19 18 17 15 14 12 11 10 8 8 9 10 10 10 10 10 10 10 10 10 10 10 10 11 12 14 15 17 18 19 20 20 21 21 21 20 20 20 21 21 21 22 22 22 22 23 23 22
18 18 18 20 19 19 18 10 6 7 9 10 10 10 11 11 13 13 10 13 21 22 20 20 18 18 22 25 26 29 28 24 25 28 28 24 22 23 21 18 15 13 12 11 10 9 8 8 9 10 10 10 9 9 9 8 8 7 7 8 9 10 12 13 15 16 17 18 19 19 19 19 19 19 19 19 20 21 22 22 22 22 22 22 23 23
17 19 20 21 20 19 17 11 7 8 11 14 13 14 14 14 15 15 9 11 21 25 22 21 21 19 22 26 28 29 27 20 17 21 25 27 27 26 23 19 15 13 11 9 9 9 9 10 10 11 11 10 9 8 7 6 6 6 7 7 9 10 12 13 14 15 16 17 17 18 18 18 18 18 18 19 20 21 21 22 22 21 21 21 21 21
19 20 19 19 19 18 16 12 7 6 11 16 18 20 20 17 15 16 11 9 17 25 23 23 25 22 20 23 26 27 25 21 18 19 24 28 29 27 24 20 16 14 13 11 9 8 9 10 10 10 9 8 7 6 5 5 5 5 6 7 9 11 12 13 14 15 16 16 16 17 17 16 17 17 17 18 18 19 19 19 19 19 19 19 18 18
20 19 18 18 17 15 14 10 5 5 12 18 20 24 25 20 16 17 15 10 13 20 22 24 26 24 20 23 25 24 23 23 21 21 23 27 28 25 21 18 16 14 13 11 9 8 9 9 9 9 8 7 6 5 4 5 5 6 7 9 10 11 12 13 14 15 15 15 15 15 14 14 14 14 15 15 15 15 16 16 17 17 18 18 18 18
20 19 18 19 18 14 14 12 6 6 12 17 20 24 25 22 19 19 19 16 16 19 22 24 26 24 21 21 23 22 23 24 23 22 23 26 27 23 19 18 18 15 12 10 9 9 8 7 6 6 6 5 5 5 5 6 7 7 9 10 11 12 13 14 15 14 13 12 12 11 11 11 12 12 13 13 14 15 16 16 17 18 18 19 19 19
20 20 18 19 19 15 14 14 10 8 11 16 20 23 24 24 22 20 21 20 18 20 23 23 23 24 23 21 21 21 23 24 23 21 22 24 24 20 18 20 21 16 13 11 10 8 7 5 5 5 6 6 6 6 7 7 8 9 10 11 12 13 13 12 11 10 9 9 9 9 9 10 11 12 13 14 15 16 16 17 18 18 19 19 20 20
20 20 18 18 19 17 14 14 13 11 12 16 20 23 25 26 23 19 18 18 17 19 21 20 19 21 23 23 22 21 22 24 23 21 21 22 21 20 20 22 22 18 15 12 10 8 7 5 5 6 7 7 7 8 8 9 9 10 10 11 12 11 10 8 7 7 7 7 7 8 9 10 12 13 13 14 15 15 16 17 18 19 19 19 19 19
21 22 20 19 19 18 15 15 15 13 13 17 21 22 23 25 23 19 17 18 17 17 20 20 19 19 20 21 22 22 22 24 24 23 23 23 23 22 23 24 23 20 16 13 10 8 7 6 6 7 8 9 9 9 10 10 10 10 10 10 9 7 5 5 5 5 6 6 7 9 10 12 12 13 14 14 15 15 16 17 18 18 18 18 19 19
21 21 21 20 20 19 16 16 16 14 14 18 22 23 21 21 22 20 18 18 17 16 18 22 23 22 21 21 22 22 23 24 25 25 25 25 25 25 25 27 25 21 17 13 10 8 7 7 8 9 9 10 11 10 10 9 9 9 9 7 4 2 2 2 3 4 5 6 8 10 11 12 13 13 14 14 15 15 16 16 16 17 17 17 17 18
21 21 20 20 21 21 18 16 16 15 16 19 21 22 21 19 19 19 19 18 16 15 18 22 24 25 24 23 23 24 25 25 26 26 26 27 27 26 27 29 27 21 16 13 11 9 8 8 9 10 9 9 9 9 8 8 7 7 5 2 1 3 4 3 3 4 6 7 9 10 11 12 12 12 13 13 13 14 14 14 14 15 15 15 16 16
20 21 22 21 22 22 19 15 14 14 16 18 20 21 20 19 19 19 19 18 17 16 18 22 25 26 26 24 24 26 26 27 28 28 27 26 26 27 28 28 25 19 15 13 11 8 7 8 9 9 9 9 9 8 7 6 5 3 2 2 4 6 6 5 5 6 7 8 9 10 11 12 12 12 12 12 12 13 13 13 14 14 14 15 15 15
18 19 19 19 18 17 15 13 14 14 15 17 20 21 21 20 19 19 19 19 18 17 19 22 25 26 26 26 27 27 28 28 29 28 26 24 24 25 25 23 20 16 14 14 11 9 8 9 9 10 10 10 9 7 6 4 3 4 5 6 7 8 8 7 7 7 7 8 9 10 11 12 11 11 11 12 12 13 13 14 14 15 15 15 16 16
Wind_Direction
197 200 205 208 208 207 207 209 213 215 210 209 211 212 215 218 218 216 215 213 213 222 221 220 226 224 226 234 237 234 222 214 217 222 223 221 216 211 208 209 208 207 205 199 196 192 189 190 192 194 195 197 196 187 176 171 171 171 171 172 171 174 179 184 185 188 196 203 209 213 213 213 211 213 222 233 245 261 276 283 289 294 299 299 296 296
199 205 210 210 209 208 209 210 213 214 212 211 213 213 216 220 219 209 209 214 218 229 224 221 229 230 234 245 244 233 219 215 220 221 220 221 218 211 208 209 206 203 201 199 199 198 196 192 191 193 193 192 187 180 174 169 170 171 170 170 168 168 170 172 177 184 192 199 205 207 206 206 208 217 230 239 248 265 285 291 295 299 301 301 298 297
202 210 212 211 211 209 210 212 213 214 214 215 216 217 218 217 217 209 205 212 219 230 229 227 234 233 240 252 247 236 227 224 229 229 224 221 218 211 208 208 204 203 201 198 202 204 200 192 191 192 190 187 181 175 174 170 169 169 168 168 167 168 169 171 178 186 194 199 200 200 202 207 215 227 237 245 254 272 291 296 298 298 299 299 298 298
205 215 214 210 211 210 211 213 213 214 216 218 219 221 220 210 212 214 205 210 218 228 236 240 246 244 249 254 246 234 228 226 227 229 224 221 219 213 207 206 204 203 200 196 201 204 199 192 191 191 187 184 179 173 173 171 168 166 166 167 167 170 172 175 182 189 195 198 197 199 204 213 222 233 241 247 256 270 285 294 296 297 298 297 297 297
207 215 215 212 210 210 211 213 214 215 216 220 221 223 217 203 209 217 211 212 216 226 238 252 265 261 258 257 241 215 211 217 219 223 220 214 210 204 199 201 201 199 200 201 205 204 198 193 191 189 182 179 177 174 173 170 167 164 165 166 168 172 175 179 185 190 195 195 197 202 209 220 229 236 243 249 258 269 280 289 294 297 299 297 296 297
211 211 215 214 211 210 212 213 214 214 217 220 221 221 212 203 215 225 225 231 237 237 240 251 271 266 259 253 234 209 202 209 215 222 223 214 205 198 196 198 197 195 200 204 209 207 199 194 193 188 180 178 179 177 174 170 167 165 166 168 169 172 175 179 184 188 192 194 198 206 216 227 236 243 250 255 263 273 281 288 294 299 301 298 296 297
217 211 212 215 214 212 212 214 214 213 218 221 221 217 206 208 222 231 235 241 251 251 245 250 252 252 255 236 216 209 203 205 210 216 219 213 206 204 201 197 193 195 198 199 204 206 198 194 195 192 185 181 181 181 175 170 168 167 166 165 166 169 170 174 180 185 190 195 201 211 221 232 242 249 257 264 271 278 284 291 296 299 300 296 293 295
220 212 208 212 215 214 213 214 213 212 216 221 220 213 206 215 225 232 239 241 248 263 264 265 258 250 256 228 204 204 204 204 207 209 210 209 209 208 202 195 192 195 198 200 202 201 193 191 196 198 195 189 185 184 179 174 174 172 169 165 164 165 166 173 182 190 198 206 213 222 232 241 249 257 265 272 278 282 285 290 294 294 294 290 288 289
222 214 209 207 213 217 216 214 212 211 215 220 219 213 210 219 230 238 244 246 255 272 268 260 252 243 252 227 200 197 201 203 204 205 205 207 209 206 198 193 192 195 197 201 205 201 192 189 193 200 203 198 192 189 185 183 183 180 178 174 172 172 174 183 192 201 210 219 227 234 242 249 255 263 271 278 282 285 287 290 291 289 286 283 283 287
224 221 214 210 214 218 218 216 214 212 213 218 218 215 217 224 238 244 245 255 260 264 258 255 246 232 242 214 192 191 199 202 201 202 203 205 205 201 196 195 195 196 198 200 203 204 196 190 192 198 203 204 202 198 194 195 194 191 191 190 189 190 190 199 208 218 228 235 242 247 253 257 261 266 272 281 285 288 290 290 289 286 282 282 286 291
219 225 220 216 216 219 219 218 217 214 213 218 218 216 222 232 244 248 245 253 263 250 249 254 246 233 238 207 190 190 199 203 200 197 197 199 198 195 197 200 200 199 201 202 202 203 200 196 196 198 203 207 209 208 206 207 205 203 204 204 206 207 208 219 229 240 250 254 257 261 266 269 271 274 278 284 288 291 292 291 286 282 280 283 289 293
211 215 221 220 218 216 218 220 219 217 213 214 217 213 219 233 239 243 241 237 242 248 249 256 249 233 230 211 197 195 202 207 205 198 194 195 196 197 198 198 200 202 204 205 204 204 202 201 202 201 205 211 215 217 217 217 216 215 215 215 218 221 224 234 242 251 257 260 264 267 271 273 275 278 283 286 289 292 292 289 282 279 282 287 292 294
212 210 218 224 221 213 213 217 215 214 212 210 210 206 204 210 212 215 228 223 219 240 247 257 248 227 225 225 213 204 204 206 208 208 204 201 198 197 196 195 200 204 205 207 207 207 206 206 208 206 207 213 219 223 224 223 224 224 223 224 225 227 233 242 249 255 259 262 265 266 267 270 273 277 283 287 290 292 289 285 281 282 289 294 299 303
212 214 215 217 220 214 211 212 206 204 207 208 206 201 194 167 159 202 215 228 231 239 244 243 228 213 219 228 220 208 205 206 208 211 214 211 200 195 193 194 199 203 206 210 210 210 212 214 216 213 212 218 222 227 229 228 229 229 229 230 230 229 236 246 252 256 261 263 264 265 266 268 272 277 282 286 289 289 286 284 287 292 297 303 307 311
204 214 213 207 212 213 210 211 208 205 206 209 209 205 204 203 189 175 196 193 194 223 233 215 204 209 204 216 218 208 205 207 204 202 205 206 199 194 193 195 200 203 205 209 210 211 214 219 222 220 219 224 228 230 230 231 232 232 231 233 233 234 239 248 254 258 262 265 265 268 269 270 275 280 284 289 291 290 289 291 296 299 303 306 310 312
202 214 213 205 209 214 212 211 211 209 208 211 211 210 215 214 209 215 209 199 189 185 209 194 198 224 209 215 217 205 202 203 198 191 193 196 195 194 195 197 201 203 204 207 210 211 214 220 224 224 224 230 234 234 232 231 232 233 234 235 236 241 246 251 257 261 264 265 266 269 272 277 282 286 290 293 294 294 296 298 300 302 303 305 308 311
203 217 215 207 209 213 214 212 209 208 207 207 208 212 218 215 214 233 233 191 188 181 202 206 207 209 205 219 214 202 201 202 197 188 184 189 192 193 195 199 203 204 204 207 209 210 214 221 226 227 228 232 235 236 236 233 232 235 239 240 240 244 249 254 258 261 262 263 267 272 278 283 286 290 294 295 296 297 298 299 299 299 300 302 307 311
202 221 217 212 212 210 210 214 213 213 210 204 205 211 213 211 219 232 233 137 165 190 220 221 213 194 189 201 208 203 202 201 200 197 188 187 190 192 195 198 202 205 205 207 209 212 217 227 238 240 235 234 236 238 238 236 235 240 242 242 244 246 249 254 255 256 257 261 268 275 280 285 289 293 294 294 294 295 296 296 295 295 297 301 306 310
203 224 221 213 216 210 205 211 216 217 219 217 214 211 202 198 213 223 224 179 152 177 283 222 207 205 196 189 196 204 204 201 200 202 200 198 195 194 195 196 199 205 206 206 209 211 214 225 241 248 243 236 237 241 241 239 239 242 243 244 247 249 252 253 251 250 254 260 268 276 281 286 289 291 290 290 291 292 292 293 294 295 298 301 303 306
197 214 229 210 210 210 203 208 213 212 215 219 221 215 207 206 212 214 215 209 162 160 236 173 181 221 208 198 202 207 206 205 203 200 204 208 206 203 201 198 199 205 206 207 211 212 211 217 232 244 244 239 237 242 244 241 241 242 243 245 248 251 252 249 246 248 254 262 270 277 281 284 286 286 286 287 288 289 290 292 294 296 296 297 298 301
196 210 231 206 202 209 209 210 214 212 208 209 209 206 205 205 207 209 214 218 184 136 149 154 197 236 212 202 208 208 202 205 208 205 205 208 208 208 208 206 206 208 209 210 212 215 215 220 230 241 246 243 239 241 243 243 243 243 243 245 248 250 247 242 244 250 257 265 272 277 280 283 284 284 284 285 286 288 290 292 293 294 294 294 294 296
206 211 226 212 199 208 214 214 216 216 214 212 209 206 206 204 196 192 210 218 204 164 161 170 220 238 212 201 207 207 199 200 204 206 208 207 204 204 208 214 215 213 211 210 211 216 222 227 235 242 248 249 246 245 246 245 244 243 243 245 246 244 240 238 244 250 257 265 271 276 281 284 285 285 286 287 289 289 290 291 293 293 293 293 293 294
213 215 230 230 211 211 217 220 219 220 220 219 217 213 211 208 203 197 201 208 199 185 176 171 197 228 202 194 197 200 201 200 201 205 207 204 202 202 205 210 213 210 207 209 213 220 228 232 238 246 251 253 253 252 250 247 243 240 242 243 240 235 233 237 243 250 258 266 273 278 284 287 287 287 287 288 288 289 290 292 293 294 294 294 294 296
217 222 234 250 239 217 215 218 218 217 216 212 214 216 213 211 210 211 217 215 200 193 180 153 80 222 193 188 188 193 200 202 202 204 206 206 205 205 206 208 210 211 212 215 218 224 232 236 241 248 252 256 257 255 249 243 238 237 238 234 230 229 232 238 245 252 260 268 275 282 286 288 287 287 287 287 288 289 292 295 296 296 296 296 296 296
212 218 227 242 277 190 198 208 207 207 209 207 208 212 214 212 207 207 213 213 202 201 196 181 172 199 192 191 189 190 197 202 203 204 209 211 208 206 208 210 213 217 221 224 227 231 236 240 243 248 254 257 254 247 241 235 232 232 229 223 224 228 234 240 248 256 264 271 277 281 284 285 286 287 288 289 291 293 296 298 299 299 299 299 298 298
211 214 221 224 217 176 186 200 198 197 202 206 208 209 210 210 205 199 199 200 198 199 196 191 187 183 190 196 194 192 196 201 204 205 208 213 213 210 211 214 217 221 224 228 233 235 237 242 247 253 257 255 243 232 228 226 225 224 220 219 224 229 236 244 252 260 266 272 277 279 281 284 286 289 291 293 296 298 299 301 301 302 302 301 301 300
214 216 219 222 234 234 219 213 210 204 200 202 207 209 210 212 212 204 197 203 206 195 189 195 198 188 186 193 196 196 197 200 203 204 206 212 217 216 213 214 219 224 229 232 234 236 240 245 252 258 258 246 231 221 218 218 218 218 218 220 225 230 238 247 254 261 266 270 275 279 282 286 290 293 296 298 299 300 301 302 302 302 302 302 302 302
211 214 216 221 237 244 224 216 219 219 213 209 210 213 215 217 220 218 212 209 206 195 190 195 200 199 194 193 197 199 199 201 203 204 207 211 216 219 219 222 226 230 236 239 238 239 242 246 253 257 253 240 227 216 214 216 217 218 220 223 228 234 240 246 252 258 263 268 273 279 284 289 294 297 299 300 301 301 301 301 301 300 301 301 301 301
210 212 213 214 215 217 212 205 211 218 222 220 218 217 219 221 224 226 223 218 212 210 213 203 197 205 206 198 198 201 201 203 203 203 206 211 216 221 225 229 232 236 241 244 244 245 245 247 254 256 248 236 223 213 214 219 220 222 225 231 236 239 240 243 250 256 262 268 274 280 286 291 294 296 298 298 299 299 299 299 299 300 300 301 301 300
207 208 208 204 197 207 229 194 191 203 211 213 213 214 217 222 228 229 227 226 224 225 233 227 202 193 207 204 198 198 202 204 204 205 207 211 216 222 225 229 233 236 241 245 249 253 253 253 256 252 241 229 218 214 217 221 225 228 233 238 241 241 241 243 249 256 263 269 275 282 286 288 290 292 293 295 296 296 297 298 298 299 300 301 301 300
204 204 208 206 198 204 230 184 167 190 201 203 206 211 216 223 228 229 226 225 225 227 233 227 201 184 190 200 197 197 199 201 202 204 207 210 214 218 221 224 228 232 238 245 249 251 253 257 254 243 229 219 217 218 220 224 230 234 238 240 240 241 243 246 251 256 262 269 276 280 283 285 287 289 291 293 294 296 297 298 299 300 301 302 302 301
205 204 203 204 200 191 190 154 134 177 198 202 204 210 217 219 216 216 217 219 225 227 218 204 195 188 183 187 192 195 195 197 200 202 204 206 210 213 215 217 224 231 235 237 241 246 250 251 243 229 219 216 218 221 223 227 232 235 238 239 240 242 245 248 253 258 264 271 276 280 283 286 287 289 291 293 295 297 298 299 300 302 303 304 303 303
206 209 201 195 192 186 189 182 149 162 180 192 197 203 209 211 206 203 207 213 222 225 216 208 208 207 195 187 191 193 193 195 199 202 202 201 203 207 210 216 223 226 228 233 238 245 246 238 227 219 216 216 219 221 223 228 232 235 238 240 241 244 248 254 260 265 270 275 279 283 286 288 289 291 294 295 297 298 299 300 301 302 303 303 303 304
202 206 202 193 187 186 192 190 173 167 176 191 197 199 203 205 202 197 199 204 211 216 218 219 220 215 202 194 198 200 196 195 199 203 204 201 201 204 209 220 228 226 229 234 233 237 238 229 220 216 215 216 219 220 222 226 231 235 238 241 245 250 255 262 268 273 277 281 284 286 288 291 294 296 297 298 299 300 301 302 302 303 303 303 304 305
194 195 194 192 193 201 204 197 191 207 215 211 211 212 207 200 200 202 203 205 208 208 209 212 213 210 204 198 201 202 194 191 193 197 197 199 206 212 220 232 236 233 233 231 228 234 236 225 215 213 215 218 218 218 220 224 229 235 240 244 249 254 260 266 271 277 281 285 287 290 293 296 298 300 300 301 301 302 303 304 304 305 305 305 306 307
189 186 184 185 188 199 202 193 189 205 210 211 212 214 211 200 200 203 200 200 205 206 203 205 205 204 203 199 197 196 191 186 186 188 190 195 204 215 228 242 238 231 232 232 234 240 237 226 214 207 209 216 216 216 221 225 230 236 241 247 253 259 265 271 276 281 286 290 293 296 298 299 300 301 302 303 304 305 306 306 307 307 307 308 309 310
183 181 179 178 178 184 180 162 155 167 202 213 202 195 206 205 204 207 201 197 202 204 205 211 210 206 207 204 198 194 189 185 184 188 190 192 198 201 210 229 229 222 223 228 230 229 222 216 211 203 203 212 216 219 225 228 232 239 245 253 261 268 274 279 285 290 294 297 299 299 299 300 301 302 303 305 306 307 307 308 309 309 309 309 310 310
179 179 182 186 181 176 168 143 125 139 228 226 211 197 207 205 205 212 209 205 206 204 202 209 211 209 207 203 197 193 188 183 185 190 191 190 193 194 197 208 211 207 207 214 220 217 208 203 204 202 204 212 217 222 228 233 239 245 251 259 266 273 281 288 294 297 299 300 299 299 300 302 303 305 307 309 310 311 312 313 313 314 313 313 314 314
181 181 192 206 200 182 177 169 154 173 200 212 208 201 204 206 206 205 204 209 209 199 189 192 198 204 206 201 196 194 191 189 193 196 194 191 189 190 191 194 195 196 200 209 220 228 220 204 200 203 208 214 220 226 231 238 244 249 254 262 271 280 289 295 298 300 301 301 301 302 303 305 308 311 314 316 317 317 318 318 318 319 319 320 320 321
183 182 194 211 207 190 185 183 183 195 198 197 199 195 191 196 198 191 193 214 206 188 179 183 184 192 201 199 194 195 199 203 206 201 195 189 185 185 187 189 193 203 211 214 215 215 210 204 203 206 212 217 223 229 233 238 243 252 263 273 283 290 294 297 300 301 302 302 302 305 308 312 316 318 320 321 320 320 320 321 322 322 323 324 324 324
184 185 193 206 203 193 188 182 180 198 198 192 193 192 186 187 188 183 189 212 199 185 183 188 185 187 198 197 194 197 200 205 208 199 190 188 185 183 184 187 192 201 202 196 194 195 198 203 205 206 211 215 219 225 231 236 247 262 276 285 294 299 300 301 302 302 302 303 307 312 315 317 319 320 321 322 322 322 323 324 325 326 327 327 326 326
181 185 189 196 194 189 187 183 177 191 193 190 192 190 187 185 186 189 199 205 190 186 190 191 187 190 200 201 201 202 196 190 193 194 190 188 186 184 185 187 189 192 185 176 177 186 194 202 207 210 214 216 218 223 231 247 266 278 290 300 303 303 302 302 303 303 305 310 315 318 320 321 323 325 327 328 329 331 333 334 336 338 338 338 336 334
181 182 181 186 188 182 175 171 171 195 193 193 196 194 191 190 193 199 207 209 197 196 197 192 188 189 195 199 200 199 190 184 187 193 193 189 187 190 192 190 190 190 181 170 171 182 190 199 209 216 219 217 219 232 251 273 285 294 302 303 301 300 302 304 306 309 314 319 324 326 329 331 334 338 341 343 346 350 352 355 357 357 356 355 353 350
187 184 179 182 185 183 179 181 197 217 199 199 205 202 196 195 197 200 203 205 205 204 201 196 191 187 187 192 191 185 182 184 188 192 194 192 191 194 196 192 190 188 176 169 176 186 193 204 213 220 225 224 232 253 271 281 290 297 298 297 297 301 305 307 311 318 325 333 338 341 344 348 354 359 3 7 11 13 13 12 11 9 8 6 3 0
193 194 192 192 192 193 196 198 207 218 205 203 208 206 200 198 198 199 200 201 202 201 201 202 198 187 180 182 185 181 181 186 190 191 194 195 195 193 192 193 193 186 176 178 189 197 204 216 226 232 235 235 245 263 275 284 290 291 291 294 300 305 308 313 321 332 343 351 355 359 6 13 18 21 25 27 26 24 23 21 18 16 14 11 8 5
199 199 200 200 199 200 203 204 205 209 206 203 204 206 204 201 200 201 202 204 205 204 203 203 200 187 175 173 178 182 183 186 189 191 195 199 196 191 194 199 196 186 181 187 197 204 212 224 236 241 241 241 251 267 278 284 286 287 292 300 306 310 316 325 340 355 4 9 15 23 31 36 35 35 35 34 31 30 27 24 22 19 17 14 11 9
198 201 201 203 205 204 204 206 207 210 207 202 202 206 208 207 206 208 209 207 207 210 209 204 196 187 178 171 175 182 186 188 192 194 195 199 198 195 201 205 197 187 186 191 195 204 220 233 242 244 243 245 254 268 278 283 287 293 300 306 311 320 337 348 0 17 26 30 37 42 45 46 44 41 38 35 33 32 29 26 23 21 18 16 15 14
193 200 201 206 210 209 205 205 206 203 199 197 198 202 208 210 210 209 207 202 200 203 205 202 198 194 187 178 178 185 190 193 198 198 195 196 196 199 207 207 196 186 188 194 200 217 232 239 247 250 248 249 257 268 277 284 292 298 302 306 317 354 38 33 32 45 52 52 51 50 50 50 48 44 39 35 32 31 29 27 25 23 21 20 19 18
193 195 197 202 206 206 204 204 200 195 194 194 195 199 204 208 208 206 203 202 201 197 194 194 195 194 188 182 183 189 194 197 201 201 198 196 196 202 211 207 193 185 191 202 213 229 237 240 247 251 252 255 261 267 276 286 293 294 292 299 56 102 107 101 78 66 63 60 58 56 55 53 50 47 43 38 35 34 34 32 29 28 26 25 24 23
195 198 201 204 205 204 205 207 206 203 202 200 198 199 202 205 206 207 206 206 207 203 195 192 192 191 189 188 190 194 197 201 202 200 198 198 201 208 213 205 190 184 196 209 217 227 238 244 247 247 251 256 259 265 274 282 278 261 220 135 117 115 113 108 94 77 68 66 64 62 61 59 55 51 48 44 41 40 40 40 38 36 35 33 32 30
196 200 205 207 207 207 213 221 221 218 214 210 207 204 202 201 203 204 205 208 208 204 199 196 196 194 192 192 194 196 199 203 203 198 195 200 210 215 210 198 189 191 201 206 211 222 239 249 250 250 252 254 257 265 268 251 206 168 145 130 120 115 110 103 95 85 77 74 72 68 65 63 60 57 54 51 49 47 48 49 48 45 43 42 40 38
Height
3064 3064 3062 3060 3062 3067 3071 3075 3078 3082 3086 3088 3090 3091 3093 3094 3096 3098 3100 3103 3104 3104 3105 3106 3108 3110 3113 3113 3115 3117 3118 3119 3119 3120 3122 3123 3124 3126 3129 3130 3131 3133 3134 3136 3137 3139 3140 3141 3141 3142 3142 3143 3144 3145 3145 3146 3147 3148 3149 3150 3151 3152 3153 3154 3154 3155 3156 3156 3156 3157 3157 3158 3158 3159 3159 3159 3159 3159 3158 3158 3157 3156 3156 3155 3154 3153
3062 3058 3055 3058 3063 3069 3073 3076 3079 3082 3084 3086 3088 3090 3091 3093 3095 3097 3099 3101 3102 3102 3103 3105 3106 3108 3110 3112 3113 3115 3116 3116 3118 3119 3120 3122 3123 3125 3127 3128 3130 3131 3133 3135 3136 3138 3139 3139 3140 3141 3141 3142 3143 3144 3145 3146 3147 3148 3149 3149 3150 3151 3152 3153 3154 3154 3155 3155 3156 3156 3156 3157 3158 3158 3158 3158 3158 3158 3158 3157 3156 3155 3155 3154 3153 3152
3056 3051 3053 3060 3065 3070 3073 3076 3078 3081 3083 3085 3086 3088 3089 3091 3094 3096 3098 3099 3101 3101 3101 3103 3104 3105 3107 3109 3111 3112 3114 3115 3116 3117 3118 3120 3121 3123 3125 3126 3127 3129 3131 3133 3135 3137 3138 3139 3139 3140 3141 3141 3142 3143 3144 3145 3146 3147 3148 3149 3149 3150 3151 3152 3153 3154 3154 3154 3155 3155 3156 3157 3157 3158 3158 3157 3157 3157 3156 3156 3155 3155 3154 3153 3152 3152
3050 3050 3055 3061 3065 3069 3072 3074 3077 3079 3081 3082 3084 3086 3087 3090 3093 3095 3097 3098 3100 3100 3101 3102 3102 3103 3104 3106 3108 3110 3112 3113 3114 3115 3115 3116 3118 3119 3121 3123 3125 3128 3130 3132 3134 3136 3137 3138 3139 3139 3140 3141 3142 3143 3144 3145 3146 3147 3147 3148 3149 3150 3151 3151 3152 3153 3153 3154 3154 3155 3155 3156 3156 3157 3157 3157 3156 3156 3156 3155 3155 3154 3153 3152 3151 3151
3049 3051 3056 3060 3064 3068 3070 3072 3074 3076 3078 3080 3082 3084 3086 3090 3092 3094 3096 3097 3098 3099 3100 3101 3101 3100 3100 3102 3105 3108 3109 3110 3112 3111 3110 3110 3111 3113 3117 3122 3125 3128 3130 3131 3132 3134 3136 3137 3138 3139 3140 3141 3142 3143 3143 3144 3145 3146 3147 3147 3148 3149 3150 3151 3151 3152 3152 3153 3153 3154 3155 3155 3155 3156 3156 3156 3156 3155 3155 3154 3154 3153 3152 3151 3150 3149
3049 3052 3056 3060 3063 3065 3068 3069 3071 3074 3076 3078 3080 3082 3087 3090 3091 3093 3095 3096 3097 3098 3099 3101 3101 3098 3097 3098 3101 3103 3105 3107 3109 3109 3108 3108 3110 3112 3117 3121 3124 3127 3129 3130 3132 3133 3135 3136 3137 3138 3139 3140 3141 3142 3143 3144 3145 3145 3146 3147 3148 3149 3149 3150 3151 3151 3152 3152 3153 3153 3154 3154 3154 3155 3155 3155 3154 3154 3153 3153 3152 3151 3150 3149 3148 3148
3048 3052 3056 3058 3061 3063 3066 3067 3069 3073 3075 3076 3077 3082 3087 3089 3090 3092 3094 3096 3097 3097 3098 3100 3100 3096 3094 3096 3097 3099 3102 3104 3107 3107 3107 3109 3111 3114 3117 3120 3123 3126 3127 3129 3131 3132 3134 3135 3136 3137 3138 3139 3140 3141 3142 3143 3144 3145 3146 3146 3147 3148 3149 3149 3150 3150 3151 3152 3152 3153 3153 3153 3154 3154 3154 3153 3153 3152 3152 3151 3150 3149 3148 3148 3147 3146
3045 3051 3054 3056 3059 3061 3062 3063 3066 3071 3073 3074 3077 3083 3087 3087 3088 3091 3093 3095 3095 3096 3096 3097 3098 3096 3093 3093 3095 3097 3099 3101 3103 3105 3106 3109 3111 3114 3117 3120 3123 3125 3126 3128 3129 3131 3133 3134 3135 3137 3138 3139 3140 3141 3142 3143 3144 3144 3145 3146 3147 3148 3148 3149 3150 3150 3150 3151 3151 3152 3152 3153 3153 3152 3152 3152 3151 3151 3150 3150 3149 3148 3147 3146 3146 3146
3044 3049 3052 3055 3057 3058 3058 3060 3066 3070 3072 3074 3078 3084 3086 3087 3088 3090 3093 3094 3095 3096 3094 3093 3096 3095 3091 3091 3093 3094 3096 3097 3099 3102 3105 3108 3110 3113 3116 3119 3121 3123 3125 3127 3128 3130 3131 3133 3134 3136 3137 3138 3139 3140 3141 3142 3143 3144 3145 3146 3146 3147 3148 3148 3149 3149 3150 3150 3151 3151 3151 3151 3151 3151 3150 3150 3150 3149 3149 3148 3147 3147 3146 3145 3145 3145
3045 3047 3052 3055 3055 3055 3057 3062 3067 3070 3072 3075 3080 3084 3085 3086 3088 3090 3093 3093 3095 3095 3090 3089 3093 3093 3090 3089 3091 3092 3093 3094 3097 3100 3103 3106 3109 3112 3116 3120 3121 3122 3124 3125 3127 3128 3130 3132 3133 3134 3136 3137 3139 3140 3141 3141 3142 3143 3144 3145 3146 3146 3147 3147 3148 3148 3149 3149 3149 3150 3150 3150 3150 3149 3149 3149 3148 3148 3147 3146 3146 3145 3144 3144 3144 3143
3045 3047 3051 3052 3052 3054 3059 3063 3066 3069 3073 3077 3080 3083 3085 3086 3087 3090 3092 3092 3094 3091 3084 3086 3090 3091 3089 3087 3088 3090 3090 3092 3095 3099 3102 3105 3108 3111 3115 3119 3120 3121 3122 3123 3125 3127 3129 3130 3132 3133 3134 3136 3137 3138 3139 3140 3141 3142 3143 3144 3144 3145 3146 3146 3147 3148 3148 3148 3148 3148 3148 3148 3148 3147 3147 3147 3146 3146 3145 3145 3144 3144 3143 3143 3142 3141
3043 3046 3046 3047 3050 3055 3059 3062 3065 3069 3074 3076 3079 3082 3084 3085 3086 3089 3090 3091 3091 3085 3081 3085 3089 3089 3087 3085 3086 3088 3090 3092 3094 3095 3098 3102 3106 3110 3113 3116 3118 3119 3120 3121 3123 3125 3126 3128 3130 3132 3133 3134 3136 3137 3138 3139 3140 3141 3142 3143 3143 3144 3145 3145 3146 3146 3147 3147 3147 3147 3147 3146 3146 3145 3145 3145 3145 3144 3144 3143 3143 3142 3142 3141 3140 3139
3040 3042 3044 3047 3050 3053 3057 3060 3063 3068 3071 3074 3076 3079 3081 3083 3085 3087 3087 3087 3085 3081 3081 3084 3086 3086 3084 3083 3085 3087 3088 3091 3092 3093 3095 3097 3102 3106 3109 3112 3115 3117 3118 3120 3121 3123 3125 3127 3128 3130 3132 3133 3134 3135 3137 3138 3139 3140 3141 3142 3142 3143 3144 3144 3145 3145 3146 3146 3146 3146 3145 3145 3145 3144 3144 3144 3143 3143 3142 3142 3141 3141 3140 3139 3138 3137
3039 3042 3043 3045 3047 3049 3052 3055 3057 3061 3065 3068 3071 3073 3075 3078 3081 3084 3084 3083 3082 3080 3081 3084 3084 3083 3082 3081 3083 3085 3087 3089 3091 3093 3094 3095 3097 3101 3105 3108 3111 3114 3116 3118 3120 3122 3124 3125 3127 3129 3130 3132 3133 3134 3136 3137 3138 3139 3139 3140 3141 3142 3142 3143 3143 3144 3144 3144 3144 3144 3144 3144 3144 3144 3143 3143 3142 3141 3141 3140 3140 3139 3139 3138 3137 3135
3036 3037 3036 3038 3041 3044 3048 3050 3053 3058 3062 3065 3068 3071 3072 3072 3075 3079 3080 3080 3080 3079 3080 3082 3082 3079 3078 3079 3080 3082 3085 3087 3088 3091 3093 3094 3095 3098 3102 3105 3109 3112 3114 3117 3119 3121 3122 3124 3126 3128 3129 3130 3132 3133 3134 3135 3136 3137 3138 3139 3139 3140 3141 3141 3142 3142 3142 3142 3142 3142 3142 3143 3143 3142 3142 3141 3140 3140 3139 3139 3138 3138 3137 3136 3135 3134
3033 3032 3032 3037 3040 3042 3046 3049 3054 3058 3061 3064 3068 3070 3069 3068 3072 3076 3076 3077 3078 3078 3078 3078 3078 3076 3076 3077 3078 3080 3082 3083 3086 3089 3090 3091 3093 3096 3100 3104 3107 3109 3113 3115 3117 3119 3121 3123 3124 3126 3128 3129 3130 3131 3132 3133 3134 3136 3136 3137 3138 3138 3139 3140 3140 3140 3140 3140 3140 3140 3141 3141 3141 3140 3140 3139 3138 3138 3138 3137 3137 3136 3135 3134 3133 3133
3030 3030 3033 3038 3040 3042 3046 3049 3053 3056 3058 3061 3064 3063 3062 3067 3074 3075 3074 3075 3076 3077 3077 3076 3075 3074 3075 3076 3077 3078 3080 3083 3088 3088 3086 3088 3092 3095 3098 3102 3104 3108 3111 3114 3116 3117 3119 3121 3123 3125 3126 3127 3128 3129 3130 3131 3133 3134 3135 3135 3136 3137 3137 3138 3138 3138 3138 3138 3138 3139 3139 3139 3139 3138 3138 3137 3137 3136 3136 3135 3135 3134 3133 3132 3132 3131
3029 3031 3034 3037 3039 3041 3046 3049 3052 3054 3056 3058 3058 3059 3064 3072 3076 3073 3073 3075 3075 3075 3076 3076 3075 3074 3075 3076 3076 3077 3080 3083 3089 3090 3088 3090 3094 3095 3095 3098 3102 3106 3110 3112 3114 3116 3118 3120 3122 3123 3124 3126 3127 3128 3128 3130 3131 3133 3133 3133 3134 3135 3136 3136 3136 3136 3136 3137 3137 3138 3138 3137 3137 3136 3136 3135 3135 3135 3134 3134 3133 3132 3132 3131 3130 3130
3030 3032 3033 3036 3038 3041 3045 3048 3050 3052 3054 3056 3057 3060 3065 3069 3069 3069 3071 3072 3072 3076 3077 3077 3076 3075 3073 3074 3074 3076 3079 3082 3087 3090 3091 3094 3097 3097 3095 3097 3100 3104 3108 3110 3112 3114 3116 3118 3120 3121 3123 3124 3125 3126 3127 3129 3130 3130 3131 3131 3132 3134 3134 3135 3135 3135 3135 3135 3136 3136 3136 3136 3135 3135 3134 3134 3134 3134 3133 3132 3132 3131 3130 3129 3129 3128
3029 3031 3032 3034 3037 3041 3044 3044 3044 3046 3050 3054 3058 3060 3063 3064 3064 3066 3068 3067 3069 3075 3077 3076 3077 3074 3071 3072 3073 3075 3078 3082 3086 3089 3093 3095 3097 3099 3098 3098 3100 3103 3105 3108 3110 3112 3114 3116 3117 3119 3120 3122 3123 3124 3126 3127 3128 3128 3129 3130 3131 3132 3133 3133 3133 3133 3133 3134 3135 3135 3135 3134 3134 3133 3133 3133 3133 3132 3132 3131 3130 3129 3129 3128 3127 3126
3029 3031 3031 3032 3036 3039 3039 3038 3038 3042 3046 3050 3053 3055 3057 3060 3062 3064 3066 3065 3066 3070 3073 3076 3076 3071 3069 3072 3074 3075 3078 3082 3085 3088 3091 3093 3095 3098 3101 3101 3101 3101 3103 3106 3109 3110 3112 3114 3115 3117 3118 3120 3121 3123 3124 3125 3125 3126 3127 3128 3130 3131 3131 3132 3132 3132 3132 3133 3133 3133 3133 3133 3132 3132 3132 3131 3131 3130 3130 3129 3129 3128 3127 3126 3126 3125
3027 3030 3030 3031 3033 3034 3034 3036 3039 3042 3045 3047 3050 3052 3054 3057 3060 3062 3063 3063 3064 3065 3068 3071 3071 3068 3068 3072 3073 3075 3078 3080 3083 3086 3088 3091 3093 3096 3100 3102 3102 3101 3102 3104 3107 3109 3111 3112 3113 3114 3116 3117 3119 3121 3122 3122 3122 3123 3125 3127 3128 3129 3130 3130 3130 3130 3131 3131 3131 3131 3131 3131 3130 3130 3130 3129 3129 3128 3128 3127 3127 3126 3125 3125 3124 3123
3027 3029 3030 3030 3031 3032 3034 3038 3040 3043 3045 3047 3050 3053 3054 3056 3057 3058 3059 3060 3062 3064 3065 3066 3067 3065 3067 3070 3072 3075 3077 3079 3081 3084 3086 3089 3092 3094 3095 3097 3098 3098 3100 3103 3106 3108 3109 3110 3111 3112 3113 3115 3117 3118 3119 3119 3119 3121 3123 3125 3126 3127 3128 3129 3129 3129 3129 3130 3130 3130 3129 3129 3128 3128 3128 3127 3127 3127 3126 3126 3125 3124 3123 3122 3121 3120
3026 3028 3029 3029 3030 3032 3035 3038 3040 3042 3045 3046 3048 3050 3052 3053 3054 3056 3058 3060 3061 3062 3063 3065 3066 3065 3066 3068 3071 3073 3076 3078 3080 3082 3084 3087 3090 3092 3093 3094 3095 3098 3100 3102 3104 3105 3107 3108 3110 3111 3112 3113 3114 3115 3115 3116 3117 3119 3121 3123 3125 3126 3126 3127 3127 3127 3128 3128 3128 3128 3127 3127 3127 3126 3126 3126 3125 3125 3124 3124 3123 3122 3121 3120 3119 3118
3024 3026 3027 3029 3030 3031 3034 3036 3037 3039 3041 3042 3044 3046 3048 3051 3053 3055 3057 3059 3059 3059 3060 3063 3065 3065 3066 3068 3070 3072 3074 3076 3078 3081 3084 3086 3088 3090 3092 3093 3095 3097 3099 3100 3102 3104 3106 3107 3108 3109 3110 3111 3111 3112 3112 3113 3115 3118 3120 3122 3123 3124 3125 3125 3125 3125 3126 3126 3126 3126 3126 3125 3125 3125 3124 3124 3123 3123 3122 3121 3120 3120 3119 3118 3116 3115
3022 3024 3026 3028 3029 3029 3030 3030 3031 3032 3035 3038 3040 3042 3045 3049 3051 3053 3055 3057 3057 3057 3058 3060 3062 3064 3065 3067 3069 3071 3073 3075 3078 3081 3084 3086 3087 3088 3089 3091 3093 3095 3097 3098 3100 3103 3105 3106 3106 3107 3108 3108 3109 3109 3110 3112 3114 3117 3119 3120 3122 3123 3123 3123 3123 3123 3124 3124 3124 3124 3124 3124 3123 3123 3122 3122 3121 3121 3120 3119 3118 3117 3116 3115 3114 3113
3022 3023 3025 3027 3027 3027 3027 3027 3029 3030 3033 3035 3037 3040 3044 3047 3050 3052 3053 3054 3055 3056 3058 3058 3060 3062 3064 3065 3067 3069 3071 3073 3077 3080 3082 3084 3086 3088 3089 3091 3092 3094 3096 3098 3099 3101 3103 3104 3105 3105 3106 3106 3107 3108 3110 3111 3114 3115 3117 3119 3120 3121 3121 3121 3121 3121 3122 3123 3123 3122 3122 3122 3121 3121 3120 3120 3119 3119 3118 3117 3116 3115 3114 3113 3111 3110
3020 3022 3024 3026 3027 3026 3026 3027 3028 3030 3032 3034 3037 3040 3042 3045 3047 3049 3051 3052 3054 3055 3056 3057 3059 3060 3062 3063 3065 3067 3069 3072 3075 3077 3080 3082 3084 3087 3089 3091 3092 3093 3095 3097 3099 3100 3101 3102 3103 3104 3104 3105 3106 3107 3109 3111 3113 3114 3116 3117 3118 3119 3119 3119 3119 3120 3120 3121 3120 3120 3120 3120 3119 3119 3118 3118 3117 3117 3116 3115 3114 3113 3111 3110 3109 3107
3018 3020 3023 3025 3026 3026 3025 3026 3027 3028 3031 3034 3036 3039 3041 3043 3045 3047 3049 3051 3053 3054 3055 3056 3057 3059 3060 3062 3064 3066 3068 3070 3073 3076 3078 3081 3084 3086 3088 3089 3091 3092 3094 3095 3097 3098 3099 3100 3101 3102 3102 3103 3105 3107 3108 3110 3112 3113 3114 3115 3117 3117 3118 3118 3118 3118 3118 3118 3118 3118 3118 3117 3117 3117 3116 3116 3115 3114 3114 3112 3111 3110 3109 3107 3106 3104
3017 3019 3021 3023 3025 3026 3026 3025 3026 3027 3029 3032 3034 3036 3039 3041 3043 3045 3048 3050 3051 3053 3054 3055 3056 3058 3060 3061 3063 3065 3068 3070 3073 3075 3077 3080 3083 3085 3087 3088 3090 3092 3093 3094 3096 3097 3097 3099 3100 3100 3101 3102 3104 3106 3107 3110 3112 3113 3113 3114 3115 3115 3116 3116 3116 3116 3117 3116 3116 3116 3116 3115 3115 3115 3114 3114 3113 3112 3111 3110 3108 3107 3105 3104 3102 3101
3016 3018 3020 3022 3024 3025 3026 3025 3025 3026 3028 3030 3032 3034 3037 3039 3041 3043 3045 3047 3049 3051 3053 3054 3055 3056 3059 3061 3063 3065 3067 3070 3072 3074 3076 3079 3081 3083 3085 3087 3089 3091 3093 3094 3095 3096 3096 3097 3098 3099 3100 3102 3104 3105 3107 3110 3111 3112 3112 3113 3113 3113 3114 3114 3115 3115 3115 3114 3114 3114 3114 3113 3113 3113 3112 3111 3110 3109 3108 3107 3105 3104 3102 3101 3099 3097
3014 3017 3019 3020 3023 3025 3026 3026 3025 3026 3027 3029 3030 3032 3034 3036 3038 3040 3042 3044 3047 3049 3051 3052 3053 3055 3058 3060 3063 3064 3066 3069 3071 3072 3074 3077 3079 3081 3084 3086 3088 3090 3091 3093 3094 3095 3096 3096 3097 3098 3100 3102 3104 3105 3107 3109 3110 3110 3110 3111 3111 3112 3112 3113 3113 3113 3113 3113 3112 3112 3112 3112 3111 3111 3110 3109 3108 3106 3105 3104 3102 3101 3099 3097 3096 3094
3014 3017 3018 3019 3021 3024 3025 3026 3026 3026 3028 3029 3029 3031 3032 3035 3037 3038 3040 3043 3046 3048 3049 3050 3053 3055 3057 3059 3061 3063 3065 3067 3069 3071 3073 3076 3079 3082 3084 3086 3087 3089 3090 3092 3093 3094 3094 3095 3097 3098 3100 3101 3103 3105 3106 3107 3108 3108 3109 3109 3109 3110 3111 3111 3112 3112 3111 3111 3111 3110 3110 3109 3109 3108 3107 3106 3105 3103 3102 3101 3099 3098 3096 3094 3093 3091
3013 3016 3017 3018 3020 3023 3025 3025 3026 3027 3028 3028 3029 3030 3032 3033 3035 3037 3039 3041 3044 3046 3048 3050 3053 3055 3056 3057 3059 3061 3063 3066 3069 3072 3074 3077 3079 3082 3084 3085 3086 3088 3089 3091 3091 3092 3093 3094 3096 3097 3098 3099 3101 3103 3105 3105 3106 3107 3107 3108 3108 3109 3110 3110 3110 3110 3110 3109 3109 3108 3108 3107 3106 3105 3104 3103 3101 3100 3099 3097 3096 3094 3093 3091 3089 3088
3011 3014 3016 3018 3020 3023 3025 3025 3026 3027 3028 3028 3029 3031 3031 3033 3034 3036 3037 3040 3042 3044 3047 3049 3051 3053 3055 3056 3058 3060 3062 3066 3069 3073 3076 3077 3079 3082 3083 3084 3085 3087 3089 3090 3091 3092 3092 3093 3095 3096 3097 3098 3100 3101 3103 3104 3105 3106 3106 3107 3107 3108 3108 3108 3108 3108 3108 3107 3107 3106 3105 3104 3103 3102 3101 3100 3098 3097 3095 3094 3092 3091 3089 3088 3086 3085
3010 3012 3014 3017 3020 3023 3024 3024 3025 3026 3027 3028 3029 3029 3030 3031 3033 3034 3035 3038 3040 3043 3045 3046 3049 3051 3053 3055 3057 3059 3062 3065 3069 3072 3074 3077 3080 3082 3083 3083 3085 3086 3087 3088 3090 3091 3092 3093 3093 3094 3095 3097 3099 3100 3101 3102 3104 3104 3105 3105 3105 3106 3106 3106 3106 3106 3105 3105 3104 3103 3103 3102 3101 3099 3098 3097 3095 3094 3092 3091 3089 3087 3086 3085 3083 3082
3009 3011 3013 3016 3019 3022 3022 3023 3024 3026 3027 3027 3028 3028 3029 3030 3031 3032 3034 3036 3039 3041 3042 3044 3047 3049 3052 3054 3056 3058 3061 3066 3069 3071 3074 3077 3079 3081 3082 3083 3084 3085 3086 3087 3088 3090 3091 3092 3092 3093 3095 3097 3098 3099 3100 3101 3102 3103 3103 3104 3104 3104 3104 3104 3104 3104 3103 3102 3102 3101 3100 3099 3098 3097 3096 3094 3092 3091 3089 3088 3086 3085 3083 3082 3081 3079
3008 3010 3012 3015 3018 3019 3020 3022 3025 3026 3026 3026 3027 3028 3029 3029 3031 3032 3034 3035 3038 3039 3041 3043 3046 3048 3050 3052 3055 3057 3061 3066 3069 3071 3073 3075 3077 3079 3080 3082 3083 3085 3086 3087 3088 3089 3090 3091 3092 3093 3095 3097 3098 3098 3099 3100 3101 3102 3102 3102 3103 3103 3102 3102 3102 3101 3101 3100 3100 3099 3098 3097 3096 3094 3093 3091 3090 3088 3087 3086 3084 3082 3080 3079 3078 3077
3008 3010 3013 3016 3017 3018 3018 3020 3023 3024 3024 3025 3027 3028 3028 3029 3030 3033 3033 3034 3036 3038 3040 3042 3045 3047 3049 3051 3053 3055 3059 3062 3065 3067 3070 3072 3075 3077 3079 3081 3083 3085 3086 3086 3087 3088 3089 3091 3092 3093 3094 3095 3096 3097 3098 3099 3100 3100 3101 3101 3101 3101 3101 3100 3100 3099 3099 3098 3097 3097 3096 3095 3093 3092 3091 3089 3088 3086 3085 3083 3082 3080 3078 3077 3075 3074
3007 3010 3013 3015 3016 3017 3018 3019 3021 3022 3023 3024 3026 3027 3027 3028 3030 3032 3032 3032 3035 3038 3040 3042 3045 3047 3049 3050 3052 3054 3056 3058 3061 3064 3067 3071 3074 3076 3078 3081 3083 3084 3084 3085 3086 3087 3089 3090 3092 3093 3094 3094 3095 3096 3097 3098 3099 3099 3100 3100 3100 3100 3099 3099 3098 3098 3097 3096 3095 3095 3094 3092 3091 3090 3089 3087 3086 3084 3083 3081 3080 3078 3076 3075 3073 3071
3007 3010 3013 3014 3015 3016 3017 3018 3019 3020 3021 3023 3025 3026 3027 3028 3029 3030 3031 3032 3035 3037 3039 3041 3044 3046 3048 3050 3051 3053 3056 3059 3062 3064 3067 3069 3072 3074 3077 3080 3082 3083 3083 3085 3086 3088 3089 3090 3091 3092 3093 3094 3095 3096 3097 3097 3098 3098 3099 3099 3098 3098 3098 3097 3097 3096 3095 3094 3094 3093 3091 3090 3089 3088 3087 3086 3084 3082 3081 3079 3077 3076 3074 3073 3071 3069
3006 3009 3011 3013 3014 3015 3016 3017 3019 3019 3020 3021 3022 3024 3025 3026 3027 3030 3032 3034 3036 3037 3038 3040 3042 3044 3047 3050 3051 3053 3056 3059 3062 3064 3066 3068 3071 3073 3076 3079 3080 3081 3083 3085 3087 3088 3089 3090 3091 3092 3093 3094 3095 3095 3096 3096 3097 3097 3097 3097 3097 3097 3096 3096 3095 3095 3094 3093 3092 3090 3089 3088 3087 3086 3085 3083 3082 3080 3079 3077 3076 3074 3072 3071 3070 3068
3006 3007 3009 3011 3013 3014 3015 3017 3018 3017 3018 3020 3021 3022 3023 3026 3028 3031 3033 3035 3036 3037 3038 3039 3041 3043 3046 3048 3050 3054 3056 3059 3061 3063 3066 3068 3071 3074 3077 3078 3079 3081 3083 3085 3087 3088 3089 3089 3090 3091 3092 3093 3094 3094 3095 3095 3096 3096 3096 3096 3096 3096 3095 3094 3094 3093 3092 3091 3090 3089 3088 3087 3086 3085 3083 3082 3080 3079 3077 3076 3074 3073 3071 3070 3068 3067
3005 3006 3007 3009 3011 3012 3013 3015 3016 3016 3017 3019 3020 3022 3023 3026 3028 3030 3032 3033 3035 3037 3038 3039 3040 3042 3045 3047 3050 3053 3056 3058 3060 3062 3065 3068 3070 3073 3076 3077 3078 3081 3084 3086 3086 3087 3088 3089 3090 3091 3092 3092 3093 3093 3094 3094 3095 3095 3095 3095 3095 3094 3093 3092 3092 3091 3090 3089 3088 3088 3087 3086 3085 3084 3082 3081 3080 3078 3077 3075 3074 3072 3071 3070 3068 3067
3004 3005 3006 3008 3010 3011 3012 3014 3015 3016 3017 3018 3020 3022 3024 3026 3027 3029 3031 3032 3034 3035 3037 3039 3040 3042 3044 3048 3051 3054 3056 3058 3060 3063 3065 3068 3070 3073 3075 3076 3078 3081 3084 3085 3085 3086 3087 3088 3089 3090 3091 3091 3092 3093 3093 3094 3094 3095 3094 3094 3093 3093 3092 3091 3090 3089 3089 3088 3088 3087 3086 3085 3084 3083 3082 3081 3079 3078 3077 3075 3074 3073 3071 3070 3069 3067
3003 3005 3006 3008 3010 3011 3012 3013 3014 3016 3017 3018 3020 3022 3024 3025 3027 3028 3030 3032 3033 3034 3036 3039 3041 3043 3045 3047 3051 3054 3056 3058 3060 3063 3066 3068 3070 3072 3074 3075 3078 3081 3083 3084 3085 3086 3087 3088 3088 3089 3090 3091 3091 3092 3093 3093 3094 3094 3093 3093 3092 3091 3090 3089 3089 3088 3088 3088 3088 3087 3086 3085 3084 3083 3082 3081 3080 3079 3077 3076 3075 3073 3072 3070 3069 3068
3002 3004 3005 3007 3008 3010 3011 3012 3014 3015 3016 3018 3019 3021 3023 3025 3026 3028 3029 3031 3032 3034 3036 3039 3042 3044 3046 3047 3050 3053 3055 3058 3060 3062 3065 3067 3070 3071 3072 3074 3077 3080 3082 3083 3085 3085 3086 3087 3088 3089 3089 3090 3091 3092 3092 3093 3093 3092 3092 3091 3090 3090 3089 3088 3088 3088 3089 3088 3088 3087 3086 3086 3085 3083 3082 3081 3080 3079 3078 3077 3075 3074 3073 3071 3070 3068
3001 3003 3004 3005 3007 3009 3010 3012 3013 3014 3016 3017 3019 3021 3023 3024 3026 3027 3029 3030 3031 3033 3035 3038 3041 3044 3046 3047 3050 3052 3055 3057 3059 3061 3063 3066 3068 3070 3071 3073 3076 3078 3081 3083 3084 3085 3086 3087 3088 3088 3089 3090 3091 3091 3092 3092 3092 3091 3090 3090 3089 3089 3089 3089 3089 3089 3089 3088 3088 3087 3087 3086 3085 3084 3083 3082 3081 3080 3079 3078 3077 3075 3074 3073 3071 3070
3000 3001 3003 3004 3006 3008 3009 3011 3012 3014 3015 3016 3018 3020 3021 3023 3025 3026 3028 3029 3031 3033 3035 3037 3040 3043 3045 3047 3049 3051 3054 3056 3058 3061 3063 3065 3067 3069 3070 3071 3074 3077 3080 3082 3083 3084 3085 3086 3087 3088 3088 3089 3090 3091 3091 3091 3091 3090 3089 3089 3089 3089 3090 3089 3089 3089 3089 3088 3088 3088 3087 3087 3086 3085 3084 3083 3082 3081 3080 3079 3078 3077 3075 3074 3072 3071
2999 3000 3002 3003 3005 3007 3009 3011 3013 3014 3015 3016 3017 3018 3020 3022 3024 3025 3027 3029 3030 3032 3033 3035 3038 3041 3044 3046 3048 3051 3053 3055 3057 3059 3062 3065 3067 3068 3069 3071 3073 3076 3078 3080 3082 3084 3085 3086 3087 3087 3088 3089 3090 3090 3090 3090 3090 3089 3089 3089 3089 3090 3090 3090 3090 3089 3089 3089 3089 3088 3088 3087 3087 3086 3085 3084 3083 3082 3081 3080 3079 3078 3077 3075 3074 3072
2999 3000 3002 3004 3005 3007 3009 3011 3012 3013 3014 3016 3016 3017 3019 3020 3022 3024 3026 3028 3029 3030 3032 3034 3036 3038 3041 3044 3047 3050 3052 3055 3056 3059 3062 3065 3066 3068 3070 3072 3074 3075 3077 3079 3081 3083 3085 3086 3086 3087 3087 3088 3089 3089 3089 3089 3089 3089 3089 3089 3089 3090 3090 3090 3090 3090 3090 3090 3089 3089 3089 3088 3088 3087 3086 3085 3084 3083 3082 3081 3080 3079 3078 3076 3075 3073